Location: Hastringsfeld
(50.9620°N, 10.4787°E)
Time: 19:38:35
(UTC+00:00)

ALOS - Pass Details

Date: 26 September 2023
Orbit: 676 x 679 km, 98.0° (Epoch: 08 December)

Event Time Altitude Azimuth Distance (km) Brightness Sun altitude
Rises 01:27:03 0° 22° (NNE) 3,053 6.6 -32.3°
Reaches altitude 10° 01:29:37 10° 35° (NE) 2,133 5.7 -32.0°
Enters shadow 01:33:32 27° 92° (E) 1,299 4.0 -31.6°
